Powrót do katalogu

NOAA 16 DEB

AktywnyPO
NORAD 42416·DEBRIS·🇺🇸 United States

Wystrzelony Sep 21, 2000 z Vandenberg Space Force Base

Loading…

Następne Przeloty (najbliższe 24 godziny)

TLE

ŚwieżeSource: Space-Track

Epoka: Sep 12, 2026, 21:19 UTC

1 42416U 00055TL  26255.88842598  .00011421  00000-0  20892-2 0  9991
2 42416  98.8552  52.2526 0007701 358.5749   1.5429 14.66028484542717

Śledź NOAA 16 DEB w czasie rzeczywistym z AllMySat

Download on the App Store